Private Wetterstation Wechselburg
Wetterdaten: Donnerstag, 28.01.2010
Datum Zeit Temp. +2m Bodentemp. Temp.+5cm Temp. Wind Windchill X Diff Temp. Feuchte +2m Feuchte +5cm Sonnenschein Luftdruck Regen Wind Richtung Richtung Sonnenschein UV Taupunkt Windchill Windben
28.01.2010 00:00 -5,2 C 0,1 C -4,9 C -6,6 C -9,5 C 0,0 C 92 % 91 % 0 % 1020,0 hPa 0,0 l/m 10,6 km/h (2 Bft) NO 45 0 min 0,0 UV-I -6,3 C -14,9 C 11,4 km/h (2 Bft)
28.01.2010 00:10 -5,1 C 0,1 C -4,9 C -6,1 C -9,6 C 0,0 C 92 % 91 % 0 % 1020,0 hPa 0,0 l/m 10,8 km/h (2 Bft) NO 45 0 min 0,0 UV-I -6,2 C -15,1 C 16,4 km/h (3 Bft)
28.01.2010 00:15 -4,9 C 0,1 C -4,8 C -6,0 C -9,7 C 0,0 C 92 % 91 % 0 % 1020,0 hPa 0,0 l/m 11,7 km/h (2 Bft) NO 45 0 min 0,0 UV-I -6,0 C -15,5 C 33,5 km/h (5 Bft)
28.01.2010 00:20 -4,9 C 0,1 C -4,8 C -6,0 C -9,9 C 0,0 C 92 % 91 % 0 % 1020,0 hPa 0,0 l/m 12,9 km/h (3 Bft) NO 45 0 min 0,0 UV-I -6,0 C -16,1 C 24,6 km/h (4 Bft)
28.01.2010 00:25 -4,9 C 0,1 C -4,8 C -6,0 C -10,0 C 0,0 C 92 % 91 % 0 % 1020,0 hPa 0,0 l/m 13,0 km/h (3 Bft) NO 45 0 min 0,0 UV-I -6,0 C -16,2 C 20,6 km/h (4 Bft)
28.01.2010 00:30 -4,9 C 0,1 C -4,8 C -6,0 C -10,1 C 0,0 C 92 % 91 % 0 % 1020,0 hPa 0,0 l/m 13,5 km/h (3 Bft) NO 45 0 min 0,0 UV-I -6,0 C -16,5 C 22,7 km/h (4 Bft)
28.01.2010 00:35 -5,0 C 0,1 C -4,8 C -6,1 C -10,3 C 0,0 C 92 % 91 % 0 % 1020,0 hPa 0,0 l/m 15,1 km/h (3 Bft) NO 45 0 min 0,0 UV-I -6,1 C -17,1 C 25,7 km/h (4 Bft)
28.01.2010 00:40 -4,9 C 0,1 C -4,7 C -6,7 C -10,3 C 0,0 C 92 % 92 % 0 % 1020,0 hPa 0,0 l/m 15,0 km/h (3 Bft) NO 45 0 min 0,0 UV-I -6,0 C -17,1 C 17,4 km/h (3 Bft)
28.01.2010 00:45 -4,9 C 0,1 C -4,7 C -6,1 C -10,4 C 0,0 C 92 % 92 % 0 % 1020,0 hPa 0,0 l/m 15,4 km/h (3 Bft) NO 45 0 min 0,0 UV-I -6,0 C -17,3 C 24,8 km/h (4 Bft)
28.01.2010 00:50 -4,9 C 0,1 C -4,7 C -6,1 C -10,2 C 0,0 C 92 % 92 % 0 % 1020,0 hPa 0,0 l/m 14,5 km/h (3 Bft) NO 45 0 min 0,0 UV-I -6,0 C -16,9 C 14,2 km/h (3 Bft)
28.01.2010 00:55 -4,9 C 0,1 C -4,7 C -6,0 C -9,7 C 0,0 C 92 % 92 % 0 % 1020,0 hPa 0,0 l/m 12,6 km/h (3 Bft) NO 45 0 min 0,0 UV-I -6,0 C -15,7 C 24,3 km/h (4 Bft)
28.01.2010 01:00 -4,9 C 0,1 C -4,5 C -6,0 C -9,8 C 0,0 C 92 % 92 % 0 % 1020,0 hPa 0,0 l/m 12,9 km/h (3 Bft) NO 45 0 min 0,0 UV-I -6,0 C -15,9 C 22,0 km/h (4 Bft)
28.01.2010 01:10 -4,8 C 0,1 C -4,6 C -5,9 C -9,6 C 0,0 C 92 % 92 % 0 % 1020,0 hPa 0,0 l/m 12,2 km/h (2 Bft) NO 45 0 min 0,0 UV-I -5,9 C -15,5 C 11,4 km/h (2 Bft)
28.01.2010 01:15 -4,8 C 0,1 C -4,5 C -5,9 C -9,7 C 0,0 C 92 % 92 % 0 % 1020,0 hPa 0,0 l/m 13,4 km/h (3 Bft) NO 45 0 min 0,0 UV-I -5,9 C -16,0 C 25,1 km/h (4 Bft)
28.01.2010 01:20 -4,8 C 0,1 C -4,5 C -5,9 C -9,9 C 0,0 C 92 % 92 % 0 % 1020,0 hPa 0,0 l/m 13,8 km/h (3 Bft) NO 45 0 min 0,0 UV-I -5,9 C -16,3 C 16,1 km/h (3 Bft)
28.01.2010 01:25 -4,8 C 0,1 C -4,5 C -6,0 C -10,3 C 0,0 C 92 % 92 % 0 % 1020,0 hPa 0,0 l/m 15,8 km/h (3 Bft) NO 45 0 min 0,0 UV-I -5,9 C -17,3 C 34,9 km/h (5 Bft)
28.01.2010 01:30 -4,7 C 0,1 C -4,5 C -5,9 C -9,8 C 0,0 C 92 % 92 % 0 % 1020,0 hPa 0,0 l/m 14,5 km/h (3 Bft) NO 45 0 min 0,0 UV-I -5,8 C -16,4 C 13,0 km/h (3 Bft)
28.01.2010 01:35 -4,7 C 0,2 C -4,5 C -5,8 C -9,9 C 0,0 C 92 % 91 % 0 % 1020,0 hPa 0,0 l/m 14,3 km/h (3 Bft) NO 45 0 min 0,0 UV-I -5,8 C -16,4 C 19,6 km/h (3 Bft)
28.01.2010 01:40 -4,7 C 0,2 C -4,4 C -5,8 C -9,6 C 0,0 C 92 % 91 % 0 % 1020,0 hPa 0,0 l/m 13,2 km/h (3 Bft) NO 45 0 min 0,0 UV-I -5,8 C -15,8 C 10,6 km/h (2 Bft)
28.01.2010 01:45 -4,7 C 0,2 C -4,4 C -5,8 C -9,7 C 0,0 C 92 % 91 % 0 % 1020,0 hPa 0,0 l/m 14,2 km/h (3 Bft) NO 45 0 min 0,0 UV-I -5,8 C -16,2 C 20,4 km/h (4 Bft)
28.01.2010 01:50 -4,5 C 0,2 C -4,3 C -5,6 C -9,4 C 0,0 C 92 % 90 % 0 % 1020,0 hPa 0,0 l/m 13,8 km/h (3 Bft) NO 45 0 min 0,0 UV-I -5,6 C -15,7 C 17,4 km/h (3 Bft)
28.01.2010 01:55 -4,5 C 0,2 C -4,3 C -5,6 C -9,6 C 0,0 C 92 % 89 % 0 % 1020,0 hPa 0,0 l/m 14,6 km/h (3 Bft) NO 45 0 min 0,0 UV-I -5,6 C -16,2 C 14,8 km/h (3 Bft)
28.01.2010 02:00 -4,6 C 0,1 C -4,3 C -5,7 C -9,8 C 0,0 C 92 % 89 % 0 % 1020,0 hPa 0,0 l/m 15,3 km/h (3 Bft) NO 45 0 min 0,0 UV-I -5,7 C -16,6 C 19,6 km/h (3 Bft)
28.01.2010 02:10 -4,5 C 0,1 C -4,1 C -5,6 C -9,5 C 0,0 C 92 % 89 % 0 % 1020,0 hPa 0,0 l/m 14,3 km/h (3 Bft) NO 45 0 min 0,0 UV-I -5,6 C -16,0 C 18,5 km/h (3 Bft)
28.01.2010 02:15 -4,4 C 0,1 C -4,1 C -5,5 C -9,4 C 0,0 C 92 % 89 % 0 % 1020,0 hPa 0,0 l/m 15,1 km/h (3 Bft) NO 45 0 min 0,0 UV-I -5,5 C -16,0 C 20,4 km/h (4 Bft)
28.01.2010 02:20 -4,4 C 0,1 C -4,0 C -5,5 C -9,7 C 0,0 C 93 % 88 % 0 % 1020,0 hPa 0,0 l/m 16,9 km/h (3 Bft) NO 45 0 min 0,0 UV-I -5,4 C -16,8 C 24,0 km/h (4 Bft)
28.01.2010 02:25 -4,3 C 0,1 C -3,9 C -5,4 C -9,4 C 0,0 C 92 % 88 % 0 % 1020,0 hPa 0,0 l/m 16,3 km/h (3 Bft) NO 45 0 min 0,0 UV-I -5,4 C -16,3 C 23,0 km/h (4 Bft)
28.01.2010 02:30 -4,3 C 0,1 C -3,9 C -5,4 C -9,1 C 0,0 C 92 % 88 % 0 % 1020,0 hPa 0,0 l/m 14,6 km/h (3 Bft) NO 45 0 min 0,0 UV-I -5,4 C -15,5 C 20,6 km/h (4 Bft)
28.01.2010 02:35 -4,1 C 0,1 C -3,7 C -5,2 C -9,4 C 0,0 C 93 % 88 % 0 % 1020,0 hPa 0,0 l/m 16,9 km/h (3 Bft) NO 45 0 min 0,0 UV-I -5,1 C -16,5 C 20,4 km/h (4 Bft)
28.01.2010 02:40 -4,1 C 0,1 C -3,7 C -5,2 C -9,3 C 0,0 C 93 % 88 % 0 % 1020,0 hPa 0,0 l/m 16,3 km/h (3 Bft) NO 45 0 min 0,0 UV-I -5,1 C -16,2 C 12,6 km/h (3 Bft)
28.01.2010 02:45 -4,1 C 0,2 C -3,7 C -5,2 C -8,8 C 0,0 C 93 % 89 % 0 % 1020,0 hPa 0,0 l/m 13,7 km/h (3 Bft) NO 45 0 min 0,0 UV-I -5,1 C -14,9 C 23,8 km/h (4 Bft)
28.01.2010 02:50 -4,1 C 0,2 C -3,9 C -5,7 C -8,8 C 0,0 C 92 % 90 % 0 % 1020,0 hPa 0,0 l/m 13,2 km/h (3 Bft) NO 45 0 min 0,0 UV-I -5,2 C -14,8 C 9,7 km/h (2 Bft)
28.01.2010 02:55 -4,1 C 0,2 C -3,9 C -5,1 C -9,0 C 0,0 C 93 % 90 % 0 % 1020,0 hPa 0,0 l/m 13,8 km/h (3 Bft) NO 45 0 min 0,0 UV-I -5,1 C -15,2 C 12,9 km/h (3 Bft)
28.01.2010 03:00 -4,2 C 0,2 C -3,9 C -5,3 C -9,1 C 0,0 C 93 % 90 % 0 % 1020,0 hPa 0,0 l/m 13,7 km/h (3 Bft) NO 45 0 min 0,0 UV-I -5,2 C -15,3 C 21,4 km/h (4 Bft)
28.01.2010 03:10 -4,1 C 0,2 C -3,8 C -5,8 C -9,1 C 0,0 C 93 % 90 % 0 % 1020,0 hPa 0,0 l/m 14,0 km/h (3 Bft) NO 45 0 min 0,0 UV-I -5,1 C -15,4 C 36,7 km/h (5 Bft)
28.01.2010 03:15 -4,1 C 0,2 C -3,7 C -5,1 C -8,6 C 0,0 C 93 % 90 % 0 % 1020,0 hPa 0,0 l/m 12,9 km/h (3 Bft) NO 45 0 min 0,0 UV-I -5,1 C -14,5 C 13,7 km/h (3 Bft)
28.01.2010 03:20 -4,1 C 0,2 C -3,7 C -5,1 C -8,8 C 0,0 C 93 % 89 % 0 % 1020,0 hPa 0,0 l/m 13,8 km/h (3 Bft) NO 45 0 min 0,0 UV-I -5,1 C -15,0 C 14,6 km/h (3 Bft)
28.01.2010 03:25 -4,0 C 0,2 C -3,5 C -5,6 C -8,8 C 0,0 C 93 % 88 % 0 % 1020,0 hPa 0,0 l/m 14,8 km/h (3 Bft) NO 45 0 min 0,0 UV-I -5,0 C -15,2 C 19,5 km/h (3 Bft)
28.01.2010 03:30 -4,0 C 0,1 C -3,6 C -5,6 C -8,8 C 0,0 C 93 % 88 % 0 % 1020,0 hPa 0,0 l/m 15,4 km/h (3 Bft) NO 45 0 min 0,0 UV-I -5,0 C -15,4 C 15,4 km/h (3 Bft)
28.01.2010 03:35 -3,9 C 0,1 C -3,5 C -4,9 C -8,6 C 0,0 C 93 % 88 % 0 % 1020,0 hPa 0,0 l/m 14,8 km/h (3 Bft) NO 45 0 min 0,0 UV-I -4,9 C -15,0 C 37,5 km/h (5 Bft)
28.01.2010 03:40 -3,7 C 0,1 C -3,3 C -4,7 C -8,3 C 0,0 C 93 % 87 % 0 % 1020,0 hPa 0,0 l/m 13,5 km/h (3 Bft) NO 45 0 min 0,0 UV-I -4,7 C -14,3 C 12,9 km/h (3 Bft)
28.01.2010 03:45 -3,8 C 0,1 C -3,3 C -4,7 C -7,9 C 0,0 C 93 % 87 % 0 % 1020,0 hPa 0,0 l/m 12,7 km/h (3 Bft) NO 45 0 min 0,0 UV-I -4,8 C -13,6 C 19,6 km/h (3 Bft)
28.01.2010 03:50 -3,7 C 0,3 C -3,3 C -4,6 C -8,3 C 0,0 C 93 % 88 % 0 % 1020,0 hPa 0,0 l/m 13,4 km/h (3 Bft) NO 45 0 min 0,0 UV-I -4,7 C -14,2 C 16,1 km/h (3 Bft)
28.01.2010 03:55 -3,7 C 0,3 C -3,3 C -4,8 C -8,8 C 0,0 C 93 % 89 % 0 % 1020,0 hPa 0,0 l/m 15,4 km/h (3 Bft) NO 45 0 min 0,0 UV-I -4,7 C -15,4 C 24,8 km/h (4 Bft)
28.01.2010 04:00 -3,7 C 0,3 C -3,5 C -4,8 C -8,9 C 0,0 C 93 % 90 % 0 % 1020,0 hPa 0,0 l/m 15,4 km/h (3 Bft) NO 45 0 min 0,0 UV-I -4,7 C -15,5 C 15,4 km/h (3 Bft)
28.01.2010 04:10 -3,7 C 0,1 C -3,3 C -4,8 C -8,4 C 0,0 C 93 % 88 % 0 % 1020,0 hPa 0,0 l/m 14,3 km/h (3 Bft) NO 45 0 min 0,0 UV-I -4,7 C -14,6 C 24,8 km/h (4 Bft)
28.01.2010 04:15 -3,6 C 0,1 C -3,2 C -4,6 C -8,1 C 0,0 C 93 % 87 % 0 % 1020,0 hPa 0,0 l/m 14,2 km/h (3 Bft) NO 45 0 min 0,0 UV-I -4,6 C -14,2 C 14,0 km/h (3 Bft)
28.01.2010 04:20 -3,5 C 0,1 C -3,1 C -4,5 C -8,2 C 0,0 C 93 % 86 % 0 % 1020,0 hPa 0,0 l/m 14,6 km/h (3 Bft) NO 45 0 min 0,0 UV-I -4,5 C -14,4 C 19,6 km/h (3 Bft)
28.01.2010 04:25 -3,5 C 0,1 C -2,9 C -4,5 C -8,1 C 0,0 C 93 % 87 % 0 % 1020,0 hPa 0,0 l/m 15,6 km/h (3 Bft) NO 45 0 min 0,0 UV-I -4,5 C -14,5 C 21,9 km/h (4 Bft)
28.01.2010 04:30 -3,3 C 0,1 C -2,9 C -4,9 C -8,1 C 0,0 C 93 % 87 % 0 % 1020,0 hPa 0,0 l/m 15,9 km/h (3 Bft) NO 45 0 min 0,0 UV-I -4,3 C -14,6 C 23,3 km/h (4 Bft)
28.01.2010 04:35 -3,3 C 0,1 C -2,8 C -4,3 C -8,0 C 0,0 C 93 % 87 % 0 % 1020,0 hPa 0,0 l/m 16,7 km/h (3 Bft) NO 45 0 min 0,0 UV-I -4,3 C -14,7 C 17,4 km/h (3 Bft)
28.01.2010 04:40 -3,3 C 0,2 C -2,8 C -4,9 C -8,0 C 0,0 C 93 % 87 % 0 % 1020,0 hPa 0,0 l/m 16,1 km/h (3 Bft) NO 45 0 min 0,0 UV-I -4,3 C -14,5 C 16,7 km/h (3 Bft)
28.01.2010 04:45 -3,3 C 0,2 C -2,7 C -4,3 C -7,9 C 0,0 C 93 % 87 % 0 % 1020,0 hPa 0,0 l/m 15,3 km/h (3 Bft) NO 45 0 min 0,0 UV-I -4,3 C -14,2 C 19,5 km/h (3 Bft)
28.01.2010 04:50 -3,3 C 0,2 C -2,8 C -4,8 C -7,9 C 0,0 C 93 % 87 % 0 % 1020,0 hPa 0,0 l/m 15,3 km/h (3 Bft) NO 45 0 min 0,0 UV-I -4,3 C -14,2 C 13,2 km/h (3 Bft)
28.01.2010 04:55 -3,2 C 0,2 C -2,7 C -4,8 C -7,9 C 0,0 C 93 % 87 % 0 % 1020,0 hPa 0,0 l/m 15,8 km/h (3 Bft) NO 45 0 min 0,0 UV-I -4,2 C -14,3 C 18,5 km/h (3 Bft)
28.01.2010 05:00 -3,2 C 0,3 C -2,7 C -4,2 C -7,8 C 0,0 C 93 % 88 % 0 % 1020,0 hPa 0,0 l/m 15,8 km/h (3 Bft) NO 45 0 min 0,0 UV-I -4,2 C -14,2 C 17,2 km/h (3 Bft)
28.01.2010 05:10 -3,3 C 0,3 C -2,7 C -4,3 C -8,1 C 0,0 C 93 % 89 % 0 % 1020,0 hPa 0,0 l/m 15,4 km/h (3 Bft) NO 45 0 min 0,0 UV-I -4,3 C -14,5 C 21,2 km/h (4 Bft)
28.01.2010 05:15 -3,1 C 0,3 C -2,7 C -4,1 C -7,7 C 0,0 C 93 % 89 % 0 % 1020,0 hPa 0,0 l/m 14,3 km/h (3 Bft) NO 45 0 min 0,0 UV-I -4,1 C -13,7 C 18,7 km/h (3 Bft)
28.01.2010 05:20 -3,1 C 0,3 C -2,5 C -4,1 C -7,6 C 0,0 C 93 % 88 % 0 % 1020,0 hPa 0,0 l/m 14,3 km/h (3 Bft) NO 45 0 min 0,0 UV-I -4,1 C -13,6 C 21,9 km/h (4 Bft)
28.01.2010 05:25 -3,1 C 0,3 C -2,6 C -4,0 C -7,1 C 0,0 C 93 % 88 % 0 % 1020,0 hPa 0,0 l/m 12,9 km/h (3 Bft) NO 45 0 min 0,0 UV-I -4,1 C -12,6 C 10,5 km/h (2 Bft)
28.01.2010 05:30 -2,9 C 0,3 C -2,5 C -3,7 C -6,8 C 0,0 C 93 % 88 % 0 % 1020,0 hPa 0,0 l/m 12,4 km/h (3 Bft) NO 45 0 min 0,0 UV-I -3,9 C -12,2 C 15,9 km/h (3 Bft)
28.01.2010 05:35 -2,9 C 0,3 C -2,3 C -3,7 C -6,6 C 0,0 C 93 % 89 % 0 % 1020,0 hPa 0,0 l/m 11,9 km/h (2 Bft) NO 45 0 min 0,0 UV-I -3,9 C -11,8 C 16,1 km/h (3 Bft)
28.01.2010 05:40 -2,9 C 0,3 C -2,1 C -3,6 C -6,4 C 0,0 C 94 % 89 % 0 % 1020,0 hPa 0,0 l/m 11,6 km/h (2 Bft) NO 45 0 min 0,0 UV-I -3,7 C -11,4 C 19,2 km/h (3 Bft)
28.01.2010 05:45 -2,7 C 0,3 C -2,1 C -3,4 C -6,3 C 0,0 C 94 % 88 % 0 % 1020,0 hPa 0,0 l/m 12,7 km/h (3 Bft) NO 45 0 min 0,0 UV-I -3,5 C -11,6 C 13,8 km/h (3 Bft)
28.01.2010 05:50 -2,5 C 0,3 C -2,0 C -3,3 C -6,2 C 0,0 C 94 % 88 % 0 % 1020,0 hPa 0,0 l/m 13,0 km/h (3 Bft) NO 45 0 min 0,0 UV-I -3,3 C -11,6 C 15,9 km/h (3 Bft)
28.01.2010 05:55 -2,5 C 0,3 C -1,9 C -3,3 C -6,4 C 0,0 C 94 % 88 % 0 % 1020,0 hPa 0,0 l/m 14,3 km/h (3 Bft) NO 45 0 min 0,0 UV-I -3,3 C -12,1 C 19,0 km/h (3 Bft)
28.01.2010 06:00 -2,5 C 0,3 C -1,9 C -3,3 C -6,2 C 0,0 C 94 % 88 % 0 % 1020,0 hPa 0,0 l/m 13,0 km/h (3 Bft) NO 45 0 min 0,0 UV-I -3,3 C -11,6 C 15,6 km/h (3 Bft)
28.01.2010 06:10 -2,5 C 0,3 C -1,7 C -3,1 C -5,1 C 0,0 C 94 % 89 % 0 % 1020,0 hPa 0,0 l/m 9,0 km/h (2 Bft) NO 45 0 min 0,0 UV-I -3,3 C -9,1 C 6,3 km/h (2 Bft)
28.01.2010 06:15 -2,3 C 0,3 C -1,8 C -3,2 C -5,1 C 0,0 C 94 % 89 % 0 % 1020,0 hPa 0,0 l/m 9,2 km/h (2 Bft) NO 45 0 min 0,0 UV-I -3,1 C -9,2 C 16,4 km/h (3 Bft)
28.01.2010 06:20 -2,4 C 0,3 C -1,7 C -2,9 C -5,3 C 0,0 C 94 % 89 % 0 % 1020,0 hPa 0,0 l/m 10,0 km/h (2 Bft) NO 45 0 min 0,0 UV-I -3,2 C -9,6 C 17,4 km/h (3 Bft)
28.01.2010 06:25 -2,1 C 0,4 C -1,7 C -2,8 C -5,4 C 0,0 C 94 % 89 % 0 % 1020,0 hPa 0,0 l/m 10,5 km/h (2 Bft) NO 45 0 min 0,0 UV-I -2,9 C -9,9 C 10,5 km/h (2 Bft)
28.01.2010 06:30 -2,1 C 0,4 C -1,7 C -2,8 C -5,3 C 0,0 C 94 % 89 % 0 % 1020,0 hPa 0,0 l/m 10,1 km/h (2 Bft) NO 45 0 min 0,0 UV-I -2,9 C -9,7 C 16,4 km/h (3 Bft)
28.01.2010 06:35 -2,1 C 0,4 C -1,5 C -2,7 C -5,1 C 0,0 C 94 % 89 % 0 % 1020,0 hPa 0,0 l/m 9,8 km/h (2 Bft) NO 45 0 min 0,0 UV-I -2,9 C -9,3 C 9,8 km/h (2 Bft)
28.01.2010 06:40 -2,1 C 0,4 C -1,5 C -3,1 C -5,1 C 0,0 C 94 % 89 % 0 % 1020,0 hPa 0,0 l/m 10,1 km/h (2 Bft) NO 45 0 min 0,0 UV-I -2,9 C -9,4 C 12,1 km/h (2 Bft)
28.01.2010 06:45 -2,1 C 0,4 C -1,3 C -3,1 C -5,1 C 0,0 C 94 % 90 % 0 % 1020,0 hPa 0,0 l/m 9,8 km/h (2 Bft) NO 45 0 min 0,0 UV-I -2,9 C -9,3 C 7,6 km/h (2 Bft)
28.01.2010 06:50 -2,1 C 0,4 C -1,3 C -2,7 C -4,8 C 0,0 C 94 % 90 % 0 % 1020,0 hPa 0,0 l/m 9,2 km/h (2 Bft) NO 45 0 min 0,0 UV-I -2,9 C -8,8 C 10,6 km/h (2 Bft)
28.01.2010 06:52 -1,9 C 0,4 C -1,3 C -2,4 C -4,3 C 0,0 C 94 % 90 % 0 % 1020,0 hPa 0,0 l/m 8,2 km/h (2 Bft) NO 45 0 min 0,0 UV-I -2,7 C -7,9 C 8,9 km/h (2 Bft)
28.01.2010 06:57 -1,9 C 0,4 C -1,2 C -2,4 C -4,9 C 0,0 C 94 % 90 % 0 % 1020,0 hPa 0,0 l/m 10,6 km/h (2 Bft) NO 45 0 min 0,0 UV-I -2,7 C -9,3 C 14,5 km/h (3 Bft)
28.01.2010 07:02 -1,9 C 0,4 C -1,2 C -2,9 C -4,9 C 0,0 C 94 % 90 % 0 % 1020,0 hPa 0,0 l/m 10,6 km/h (2 Bft) NO 45 0 min 0,0 UV-I -2,7 C -9,3 C 14,5 km/h (3 Bft)
28.01.2010 07:05 -1,8 C 0,4 C -1,1 C -2,4 C -5,0 C 0,0 C 94 % 89 % 0 % 1020,0 hPa 0,0 l/m 11,4 km/h (2 Bft) NO 45 0 min 0,0 UV-I -2,6 C -9,7 C 15,3 km/h (3 Bft)
28.01.2010 07:10 -1,7 C 0,4 C -1,0 C -2,8 C -5,0 C 0,0 C 94 % 89 % 0 % 1020,0 hPa 0,0 l/m 12,4 km/h (3 Bft) NO 45 0 min 0,0 UV-I -2,5 C -10,0 C 17,4 km/h (3 Bft)
28.01.2010 07:15 -1,6 C 0,4 C -0,9 C -2,3 C -5,2 C 0,0 C 94 % 89 % 0 % 1020,0 hPa 0,0 l/m 14,6 km/h (3 Bft) NO 45 0 min 0,0 UV-I -2,4 C -10,7 C 17,5 km/h (3 Bft)
28.01.2010 07:20 -1,5 C 0,4 C -0,9 C -2,2 C -5,1 C 0,0 C 94 % 89 % 0 % 1020,0 hPa 0,0 l/m 14,6 km/h (3 Bft) NO 45 0 min 0,0 UV-I -2,3 C -10,6 C 17,5 km/h (3 Bft)
28.01.2010 07:25 -1,3 C 0,4 C -0,7 C -2,0 C -4,6 C 0,0 C 94 % 89 % 0 % 1020,0 hPa 0,0 l/m 13,4 km/h (3 Bft) NO 45 0 min 0,0 UV-I -2,1 C -9,7 C 12,2 km/h (2 Bft)
28.01.2010 07:27 -1,3 C 0,4 C -0,5 C -1,4 C -4,4 C 0,0 C 93 % 89 % 0 % 1020,0 hPa 0,0 l/m 13,4 km/h (3 Bft) NO 45 0 min 0,0 UV-I -2,3 C -9,5 C 14,5 km/h (3 Bft)
28.01.2010 07:29 -1,3 C 0,4 C -0,5 C -2,3 C -4,4 C 0,0 C 93 % 89 % 0 % 1020,0 hPa 0,0 l/m 13,4 km/h (3 Bft) NO 45 0 min 0,0 UV-I -2,3 C -9,5 C 14,5 km/h (3 Bft)
28.01.2010 07:35 -1,3 C 0,4 C -0,5 C -2,3 C -4,4 C 0,0 C 93 % 88 % 0 % 1020,0 hPa 0,0 l/m 13,0 km/h (3 Bft) NO 45 0 min 0,0 UV-I -2,3 C -9,4 C 18,5 km/h (3 Bft)
28.01.2010 07:40 -1,2 C 0,4 C -0,5 C -1,8 C -4,3 C 0,0 C 93 % 89 % 0 % 1020,0 hPa 0,0 l/m 13,0 km/h (3 Bft) NO 45 0 min 0,0 UV-I -2,2 C -9,3 C 13,7 km/h (3 Bft)
28.01.2010 07:45 -1,1 C 0,5 C -0,4 C -1,8 C -4,6 C 0,0 C 94 % 89 % 0 % 1020,0 hPa 0,0 l/m 14,3 km/h (3 Bft) S 180 0 min 0,0 UV-I -1,9 C -9,9 C 13,5 km/h (3 Bft)
28.01.2010 07:50 -1,1 C 0,4 C -0,3 C -1,8 C -4,5 C 0,0 C 94 % 90 % 0 % 1020,0 hPa 0,0 l/m 13,8 km/h (3 Bft) S 180 0 min 0,0 UV-I -1,9 C -9,7 C 12,7 km/h (3 Bft)
28.01.2010 07:55 -0,9 C 0,4 C -0,3 C -1,6 C -4,4 C 0,0 C 94 % 89 % 0 % 1020,0 hPa 0,0 l/m 13,5 km/h (3 Bft) S 180 0 min 0,0 UV-I -1,7 C -9,5 C 17,1 km/h (3 Bft)
28.01.2010 08:00 -0,9 C 0,4 C -0,3 C -1,6 C -4,7 C 0,0 C 93 % 89 % 0 % 1020,0 hPa 0,0 l/m 15,6 km/h (3 Bft) S-SW 202 0 min 0,0 UV-I -1,9 C -10,3 C 23,3 km/h (4 Bft)
28.01.2010 08:10 -0,8 C 0,4 C -0,1 C -2,1 C -4,7 C 0,0 C 93 % 89 % 0 % 1020,0 hPa 0,0 l/m 15,6 km/h (3 Bft) SW 225 0 min 0,0 UV-I -1,8 C -10,3 C 18,5 km/h (3 Bft)
28.01.2010 08:15 -0,8 C 0,4 C -0,1 C -1,6 C -4,5 C 0,0 C 92 % 89 % 0 % 1020,0 hPa 0,0 l/m 13,8 km/h (3 Bft) SW 225 0 min 0,0 UV-I -1,9 C -9,7 C 15,1 km/h (3 Bft)
28.01.2010 08:20 -0,8 C 0,4 C -0,1 C -1,5 C -4,3 C 0,0 C 92 % 89 % 0 % 1020,0 hPa 0,0 l/m 12,9 km/h (3 Bft) SW 225 0 min 0,0 UV-I -1,9 C -9,2 C 13,8 km/h (3 Bft)
28.01.2010 08:22 -0,7 C 0,4 C -0,1 C -1,9 C -4,3 C 0,0 C 92 % 88 % 0 % 1020,0 hPa 0,0 l/m 13,0 km/h (3 Bft) SW 225 0 min 0,0 UV-I -1,8 C -9,3 C 17,1 km/h (3 Bft)
28.01.2010 08:27 -0,8 C 0,4 C -0,3 C -1,5 C -4,4 C 0,0 C 92 % 88 % 0 % 1020,0 hPa 0,0 l/m 13,0 km/h (3 Bft) SW 225 0 min 0,0 UV-I -1,9 C -9,4 C 10,9 km/h (2 Bft)
28.01.2010 08:30 -0,8 C 0,4 C -0,3 C -2,0 C -4,4 C 0,0 C 92 % 88 % 0 % 1020,0 hPa 0,0 l/m 13,0 km/h (3 Bft) SW 225 0 min 0,0 UV-I -1,9 C -9,4 C 10,9 km/h (2 Bft)
28.01.2010 08:35 -0,8 C 0,4 C -0,3 C -1,5 C -4,1 C 0,0 C 91 % 88 % 0 % 1020,0 hPa 0,0 l/m 11,7 km/h (2 Bft) SW 225 0 min 0,0 UV-I -2,1 C -8,7 C 18,0 km/h (3 Bft)
28.01.2010 08:40 -0,7 C 0,4 C -0,3 C -1,4 C -4,2 C 0,0 C 91 % 89 % 0 % 1018,0 hPa 0,0 l/m 12,1 km/h (2 Bft) SW 225 0 min 0,0 UV-I -2,0 C -8,9 C 13,0 km/h (3 Bft)
28.01.2010 08:45 -0,5 C 0,5 C -0,3 C -1,4 C -4,7 C 0,0 C 90 % 89 % 0 % 1018,0 hPa 0,0 l/m 14,2 km/h (3 Bft) SW 225 0 min 0,0 UV-I -1,9 C -10,0 C 21,2 km/h (4 Bft)
28.01.2010 08:50 -0,5 C 0,5 C -0,3 C -1,9 C -4,7 C 0,0 C 90 % 91 % 0 % 1018,0 hPa 0,0 l/m 14,3 km/h (3 Bft) SW 225 0 min 0,0 UV-I -1,9 C -10,1 C 16,1 km/h (3 Bft)
28.01.2010 08:55 -0,5 C 0,4 C -0,3 C -1,3 C -4,1 C 0,0 C 90 % 91 % 0 % 1017,0 hPa 0,0 l/m 11,6 km/h (2 Bft) SW 225 0 min 0,0 UV-I -1,9 C -8,7 C 8,7 km/h (2 Bft)
28.01.2010 09:00 -0,5 C 0,4 C -0,3 C -1,2 C -3,8 C 0,0 C 90 % 91 % 0 % 1017,0 hPa 0,0 l/m 10,6 km/h (2 Bft) SW 225 0 min 0,0 UV-I -1,9 C -8,0 C 17,5 km/h (3 Bft)
28.01.2010 09:10 -0,3 C 0,4 C -0,3 C -1,1 C -4,0 C 0,0 C 89 % 91 % 0 % 1016,0 hPa 0,0 l/m 12,2 km/h (2 Bft) SW 225 0 min 0,0 UV-I -1,9 C -8,7 C 14,2 km/h (3 Bft)
28.01.2010 09:15 -0,4 C 0,5 C -0,2 C -1,1 C -3,8 C 0,0 C 89 % 91 % 0 % 1016,0 hPa 0,0 l/m 11,9 km/h (2 Bft) SW 225 0 min 0,0 UV-I -2,0 C -8,4 C 16,6 km/h (3 Bft)
28.01.2010 09:20 -0,4 C 0,5 C -0,1 C -1,1 C -3,7 C 0,0 C 89 % 91 % 0 % 1016,0 hPa 0,0 l/m 11,6 km/h (2 Bft) SW 225 0 min 0,0 UV-I -2,0 C -8,2 C 13,5 km/h (3 Bft)
28.01.2010 09:25 -0,3 C 0,5 C -0,1 C -1,0 C -3,4 C 0,0 C 90 % 91 % 0 % 1015,0 hPa 0,0 l/m 10,3 km/h (2 Bft) SW 225 0 min 0,0 UV-I -1,7 C -7,5 C 14,6 km/h (3 Bft)
28.01.2010 09:30 -0,3 C 0,6 C -0,2 C -0,9 C -3,3 C 0,0 C 90 % 91 % 0 % 1015,0 hPa 0,0 l/m 10,3 km/h (2 Bft) SW 225 0 min 0,0 UV-I -1,7 C -7,3 C 15,4 km/h (3 Bft)
28.01.2010 09:32 -0,3 C 0,6 C -0,1 C -0,9 C -3,5 C 0,0 C 90 % 91 % 0 % 1014,0 hPa 0,0 l/m 11,1 km/h (2 Bft) SW 225 0 min 0,0 UV-I -1,7 C -7,8 C 10,5 km/h (2 Bft)
28.01.2010 09:37 -0,1 C 0,6 C -0,1 C -0,8 C -3,4 C 0,0 C 90 % 91 % 0 % 1014,0 hPa 0,0 l/m 10,9 km/h (2 Bft) SW 225 0 min 0,0 UV-I -1,5 C -7,6 C 10,0 km/h (2 Bft)
28.01.2010 09:42 -0,1 C 0,6 C -0,1 C -1,2 C -3,4 C 0,0 C 90 % 91 % 0 % 1013,0 hPa 0,0 l/m 11,4 km/h (2 Bft) SW 225 0 min 0,0 UV-I -1,5 C -7,8 C 12,7 km/h (3 Bft)
28.01.2010 09:45 -0,1 C 0,6 C -0,1 C -1,2 C -3,4 C 0,0 C 90 % 91 % 0 % 1013,0 hPa 0,0 l/m 11,4 km/h (2 Bft) SW 225 0 min 0,0 UV-I -1,5 C -7,8 C 12,7 km/h (3 Bft)
28.01.2010 09:50 0,0 C 0,6 C -0,1 C -1,1 C -3,4 C 0,0 C 90 % 91 % 0 % 1012,0 hPa 0,0 l/m 11,9 km/h (2 Bft) SW 225 0 min 0,0 UV-I -1,4 C -7,9 C 14,2 km/h (3 Bft)
28.01.2010 09:55 0,3 C 0,6 C 0,1 C -0,4 C -2,9 C 0,0 C 89 % 91 % 0 % 1012,0 hPa 0,0 l/m 10,8 km/h (2 Bft) SW 225 0 min 0,0 UV-I -1,3 C -7,0 C 10,5 km/h (2 Bft)
28.01.2010 10:00 0,2 C 0,5 C 0,1 C -0,4 C -2,7 C 0,0 C 89 % 91 % 0 % 1011,0 hPa 0,0 l/m 10,6 km/h (2 Bft) S 180 0 min 0,0 UV-I -1,4 C -6,7 C 12,7 km/h (3 Bft)
28.01.2010 10:02 0,4 C 0,5 C 0,3 C 0,0 C -2,7 C 0,0 C 89 % 91 % 0 % 1011,0 hPa 0,0 l/m 10,8 km/h (2 Bft) SW 225 0 min 0,0 UV-I -1,2 C -6,8 C 11,1 km/h (2 Bft)
28.01.2010 10:07 0,5 C 0,5 C 0,3 C -0,2 C -2,8 C 0,0 C 89 % 91 % 0 % 1011,0 hPa 0,0 l/m 12,4 km/h (3 Bft) SW 225 0 min 0,0 UV-I -1,1 C -7,3 C 17,5 km/h (3 Bft)
28.01.2010 10:12 0,5 C 0,5 C 0,4 C -0,2 C -2,6 C 0,0 C 88 % 91 % 0 % 1010,0 hPa 0,0 l/m 11,7 km/h (2 Bft) SW 225 0 min 0,0 UV-I -1,3 C -6,9 C 8,7 km/h (2 Bft)
28.01.2010 10:15 0,5 C 0,5 C 0,4 C -0,5 C -2,6 C 0,0 C 88 % 91 % 0 % 1010,0 hPa 0,0 l/m 11,7 km/h (2 Bft) SW 225 0 min 0,0 UV-I -1,3 C -6,9 C 8,7 km/h (2 Bft)
28.01.2010 10:20 0,6 C 0,5 C 0,4 C 0,0 C -2,4 C 0,0 C 88 % 91 % 0 % 999,6 hPa 0,0 l/m 11,1 km/h (2 Bft) W-SW 247 0 min 0,0 UV-I -1,2 C -6,5 C 13,7 km/h (3 Bft)
28.01.2010 10:25 0,9 C 0,5 C 0,7 C 0,2 C -2,3 C 0,0 C 88 % 90 % 0 % 999,6 hPa 0,0 l/m 11,7 km/h (2 Bft) W-SW 247 0 min 0,0 UV-I -0,9 C -6,5 C 20,8 km/h (4 Bft)
28.01.2010 10:27 0,9 C 0,4 C 0,7 C 0,2 C -2,4 C 0,0 C 87 % 90 % 0 % 999,6 hPa 0,0 l/m 13,2 km/h (3 Bft) S-SW 202 0 min 0,0 UV-I -1,0 C -7,0 C 17,7 km/h (3 Bft)
28.01.2010 10:32 1,1 C 0,4 C 0,8 C 0,4 C -2,0 C 0,0 C 87 % 89 % 0 % 999,6 hPa 0,0 l/m 12,7 km/h (3 Bft) SW 225 0 min 0,0 UV-I -0,8 C -6,4 C 14,5 km/h (3 Bft)
28.01.2010 10:37 1,2 C 0,4 C 0,9 C 0,6 C -1,7 C 0,0 C 87 % 89 % 0 % 1000,4 hPa 0,0 l/m 12,1 km/h (2 Bft) SW 225 0 min 0,0 UV-I -0,7 C -5,9 C 16,7 km/h (3 Bft)
28.01.2010 10:42 1,4 C 0,4 C 1,1 C 0,8 C -1,1 C 0,0 C 85 % 89 % 0 % 1000,4 hPa 0,0 l/m 10,5 km/h (2 Bft) S-SW 202 0 min 0,0 UV-I -0,8 C -4,8 C 10,8 km/h (2 Bft)
28.01.2010 10:47 1,5 C 0,4 C 1,1 C 1,0 C -0,7 C 0,0 C 85 % 88 % 0 % 1000,4 hPa 0,0 l/m 9,7 km/h (2 Bft) SW 225 0 min 0,0 UV-I -0,7 C -4,1 C 9,7 km/h (2 Bft)
28.01.2010 10:52 1,6 C 0,4 C 1,1 C 1,2 C -0,4 C 0,0 C 85 % 88 % 0 % 1000,4 hPa 0,0 l/m 9,0 km/h (2 Bft) W-SW 247 0 min 0,0 UV-I -0,6 C -3,5 C 12,9 km/h (3 Bft)
28.01.2010 10:57 1,7 C 0,4 C 1,2 C 1,3 C -0,5 C 0,0 C 84 % 87 % 0 % 999,6 hPa 0,0 l/m 9,3 km/h (2 Bft) S-SW 202 0 min 0,0 UV-I -0,7 C -3,7 C 13,7 km/h (3 Bft)
28.01.2010 10:59 1,7 C 0,4 C 1,2 C 1,0 C -0,5 C 0,0 C 84 % 87 % 0 % 999,6 hPa 0,0 l/m 9,3 km/h (2 Bft) S-SW 202 0 min 0,0 UV-I -0,7 C -3,7 C 13,7 km/h (3 Bft)
28.01.2010 11:10 1,7 C 0,4 C 1,2 C 1,2 C -0,8 C 0,0 C 84 % 87 % 0 % 999,6 hPa 0,0 l/m 10,8 km/h (2 Bft) SW 225 0 min 0,0 UV-I -0,7 C -4,5 C 15,9 km/h (3 Bft)
28.01.2010 11:15 1,6 C 0,4 C 1,2 C 1,1 C -1,0 C 0,0 C 84 % 87 % 0 % 999,6 hPa 0,0 l/m 12,4 km/h (3 Bft) SW 225 0 min 0,0 UV-I -0,8 C -5,1 C 20,1 km/h (4 Bft)
28.01.2010 11:20 1,6 C 0,4 C 1,3 C 1,1 C -1,2 C 0,0 C 84 % 87 % 0 % 999,9 hPa 0,0 l/m 12,7 km/h (3 Bft) S 180 0 min 0,0 UV-I -0,8 C -5,4 C 14,5 km/h (3 Bft)
28.01.2010 11:25 1,5 C 0,4 C 1,2 C 0,9 C -1,7 C 0,0 C 85 % 88 % 0 % 999,9 hPa 0,0 l/m 13,4 km/h (3 Bft) SW 225 0 min 0,0 UV-I -0,7 C -6,2 C 13,5 km/h (3 Bft)
28.01.2010 11:30 1,5 C 0,4 C 1,2 C 0,8 C -1,8 C 0,0 C 85 % 88 % 0 % 999,9 hPa 0,0 l/m 12,7 km/h (3 Bft) SW 225 0 min 0,0 UV-I -0,7 C -6,1 C 13,2 km/h (3 Bft)
28.01.2010 11:35 1,7 C 0,4 C 1,3 C 1,0 C -1,6 C 0,0 C 85 % 88 % 0 % 999,9 hPa 0,0 l/m 12,4 km/h (3 Bft) SW 225 0 min 0,0 UV-I -0,5 C -5,8 C 17,7 km/h (3 Bft)
28.01.2010 11:40 1,8 C 0,4 C 1,3 C 0,7 C -1,6 C 0,0 C 85 % 88 % 0 % 999,8 hPa 0,0 l/m 13,4 km/h (3 Bft) W 270 0 min 0,0 UV-I -0,4 C -6,1 C 13,8 km/h (3 Bft)
28.01.2010 11:45 1,9 C 0,4 C 1,4 C 1,2 C -1,5 C 0,0 C 84 % 87 % 0 % 999,8 hPa 0,0 l/m 14,5 km/h (3 Bft) SW 225 0 min 0,0 UV-I -0,5 C -6,2 C 16,1 km/h (3 Bft)
28.01.2010 11:50 2,1 C 0,4 C 1,4 C 1,3 C -1,4 C 0,0 C 84 % 87 % 0 % 999,8 hPa 0,0 l/m 14,5 km/h (3 Bft) S 180 0 min 0,0 UV-I -0,3 C -6,0 C 10,3 km/h (2 Bft)
28.01.2010 11:55 2,0 C 0,3 C 1,5 C 1,4 C -1,0 C 0,0 C 84 % 87 % 0 % 999,8 hPa 0,0 l/m 13,7 km/h (3 Bft) SW 225 0 min 0,0 UV-I -0,4 C -5,4 C 13,8 km/h (3 Bft)
28.01.2010 12:00 2,0 C 0,3 C 1,5 C 1,4 C -0,8 C 0,0 C 84 % 87 % 0 % 999,9 hPa 0,0 l/m 12,7 km/h (3 Bft) W-SW 247 0 min 0,0 UV-I -0,4 C -4,9 C 13,5 km/h (3 Bft)
28.01.2010 12:05 2,0 C 0,3 C 1,5 C 1,4 C -0,9 C 0,0 C 84 % 87 % 0 % 999,9 hPa 0,0 l/m 13,2 km/h (3 Bft) SW 225 0 min 0,0 UV-I -0,4 C -5,2 C 14,5 km/h (3 Bft)
28.01.2010 12:10 2,1 C 0,3 C 1,5 C 1,1 C -0,9 C 0,0 C 84 % 87 % 0 % 999,9 hPa 0,0 l/m 13,5 km/h (3 Bft) W-SW 247 0 min 0,0 UV-I -0,3 C -5,2 C 20,1 km/h (4 Bft)
28.01.2010 12:15 2,2 C 0,3 C 1,5 C 1,5 C -1,2 C 0,0 C 84 % 88 % 0 % 999,9 hPa 0,0 l/m 15,1 km/h (3 Bft) SW 225 0 min 0,0 UV-I -0,2 C -5,9 C 13,8 km/h (3 Bft)
28.01.2010 12:20 2,1 C 0,3 C 1,5 C 1,4 C -1,3 C 0,0 C 84 % 87 % 0 % 999,4 hPa 0,0 l/m 15,6 km/h (3 Bft) W-SW 247 0 min 0,0 UV-I -0,3 C -6,1 C 18,8 km/h (3 Bft)
28.01.2010 12:25 2,3 C 0,3 C 1,6 C 1,1 C -1,3 C 0,0 C 83 % 87 % 0 % 999,4 hPa 0,0 l/m 16,6 km/h (3 Bft) SW 225 0 min 0,0 UV-I -0,3 C -6,3 C 18,8 km/h (3 Bft)
28.01.2010 12:30 2,4 C 0,3 C 1,6 C 1,2 C -1,3 C 0,0 C 83 % 87 % 0 % 999,4 hPa 0,0 l/m 16,7 km/h (3 Bft) N-NW 337 0 min 0,0 UV-I -0,2 C -6,3 C 16,6 km/h (3 Bft)
28.01.2010 12:35 2,5 C 0,3 C 1,7 C 1,7 C -1,2 C 0,0 C 82 % 86 % 0 % 999,4 hPa 0,0 l/m 16,7 km/h (3 Bft) W-SW 247 0 min 0,0 UV-I -0,3 C -6,2 C 17,7 km/h (3 Bft)
28.01.2010 12:40 2,5 C 0,3 C 1,7 C 1,8 C -0,9 C 0,0 C 81 % 86 % 0 % 999,4 hPa 0,0 l/m 16,3 km/h (3 Bft) W-SW 247 0 min 0,0 UV-I -0,4 C -5,8 C 21,2 km/h (4 Bft)
28.01.2010 12:45 2,5 C 0,3 C 1,8 C 1,8 C -0,6 C 0,0 C 81 % 86 % 0 % 999,4 hPa 0,0 l/m 14,2 km/h (3 Bft) SW 225 0 min 0,0 UV-I -0,4 C -5,0 C 23,2 km/h (4 Bft)
28.01.2010 12:50 2,5 C 0,3 C 1,9 C 1,8 C -0,7 C 0,0 C 81 % 86 % 0 % 999,4 hPa 0,0 l/m 14,3 km/h (3 Bft) SW 225 0 min 0,0 UV-I -0,4 C -5,1 C 13,5 km/h (3 Bft)
28.01.2010 12:55 2,6 C 0,3 C 1,9 C 1,9 C -0,8 C 0,0 C 81 % 86 % 0 % 999,4 hPa 0,0 l/m 15,3 km/h (3 Bft) W-SW 247 0 min 0,1 UV-I -0,3 C -5,5 C 19,5 km/h (3 Bft)
28.01.2010 13:00 2,7 C 0,3 C 1,9 C 2,0 C -0,6 C 0,0 C 80 % 86 % 0 % 998,9 hPa 0,0 l/m 15,0 km/h (3 Bft) W-SW 247 0 min 0,1 UV-I -0,4 C -5,2 C 18,2 km/h (3 Bft)
28.01.2010 13:10 2,8 C 0,3 C 2,0 C 2,2 C -0,1 C 0,0 C 80 % 85 % 0 % 998,9 hPa 0,0 l/m 14,2 km/h (3 Bft) S-SW 202 0 min 0,1 UV-I -0,3 C -4,4 C 16,3 km/h (3 Bft)
28.01.2010 13:15 2,8 C 0,3 C 2,0 C 2,2 C -0,4 C 0,0 C 79 % 85 % 0 % 998,9 hPa 0,0 l/m 15,3 km/h (3 Bft) SW 225 0 min 0,0 UV-I -0,5 C -5,0 C 19,0 km/h (3 Bft)
28.01.2010 13:20 2,7 C 0,3 C 1,9 C 2,1 C -0,5 C 0,0 C 79 % 85 % 0 % 998,5 hPa 0,0 l/m 15,8 km/h (3 Bft) S-SW 202 0 min 0,0 UV-I -0,6 C -5,2 C 24,8 km/h (4 Bft)
28.01.2010 13:25 2,5 C 0,3 C 1,9 C 1,8 C -0,9 C 0,0 C 79 % 85 % 0 % 998,5 hPa 0,0 l/m 16,3 km/h (3 Bft) SW 225 0 min 0,0 UV-I -0,8 C -5,8 C 22,5 km/h (4 Bft)
28.01.2010 13:30 2,4 C 0,3 C 1,9 C 1,7 C -1,2 C 0,0 C 79 % 86 % 0 % 998,5 hPa 0,0 l/m 16,1 km/h (3 Bft) SW 225 0 min 0,0 UV-I -0,9 C -6,1 C 18,3 km/h (3 Bft)
28.01.2010 13:35 2,5 C 0,3 C 1,7 C 1,7 C -0,9 C 0,0 C 79 % 87 % 0 % 998,5 hPa 0,0 l/m 14,8 km/h (3 Bft) W-SW 247 0 min 0,0 UV-I -0,8 C -5,5 C 15,3 km/h (3 Bft)
28.01.2010 13:40 2,4 C 0,3 C 1,7 C 1,7 C -0,8 C 0,0 C 79 % 87 % 0 % 998,6 hPa 0,0 l/m 13,7 km/h (3 Bft) W-SW 247 0 min 0,0 UV-I -0,9 C -5,1 C 14,8 km/h (3 Bft)
28.01.2010 13:45 2,7 C 0,3 C 1,7 C 1,9 C -0,9 C 0,0 C 79 % 87 % 0 % 998,6 hPa 0,0 l/m 14,3 km/h (3 Bft) S 180 0 min 0,0 UV-I -0,6 C -5,4 C 14,0 km/h (3 Bft)
28.01.2010 13:50 2,7 C 0,3 C 1,9 C 1,9 C -0,8 C 0,0 C 78 % 87 % 0 % 998,6 hPa 0,0 l/m 15,0 km/h (3 Bft) SW 225 0 min 0,0 UV-I -0,7 C -5,4 C 20,4 km/h (4 Bft)
28.01.2010 13:55 2,5 C 0,2 C 1,7 C 1,8 C -1,0 C 0,0 C 78 % 86 % 0 % 998,6 hPa 0,0 l/m 15,9 km/h (3 Bft) SW 225 0 min 0,0 UV-I -0,9 C -5,8 C 23,3 km/h (4 Bft)
28.01.2010 14:00 2,4 C 0,3 C 1,7 C 1,7 C -1,2 C 0,0 C 78 % 87 % 0 % 998,2 hPa 0,0 l/m 16,1 km/h (3 Bft) W-SW 247 0 min 0,0 UV-I -1,0 C -6,1 C 22,9 km/h (4 Bft)
28.01.2010 14:07 2,4 C 0,3 C 1,7 C 1,6 C -1,3 C 0,0 C 79 % 87 % 0 % 998,2 hPa 0,0 l/m 15,9 km/h (3 Bft) N 0 0 min 0,0 UV-I -0,9 C -6,2 C 18,3 km/h (3 Bft)
28.01.2010 14:10 2,3 C 0,3 C 1,7 C 1,5 C -1,4 C 0,0 C 79 % 87 % 0 % 998,2 hPa 0,0 l/m 15,4 km/h (3 Bft) S-SW 202 0 min 0,0 UV-I -1,0 C -6,2 C 10,9 km/h (2 Bft)
28.01.2010 14:12 2,3 C 0,3 C 1,5 C 1,6 C -1,4 C 0,0 C 80 % 88 % 0 % 998,2 hPa 0,0 l/m 13,5 km/h (3 Bft) SW 225 0 min 0,0 UV-I -0,8 C -5,8 C 11,9 km/h (2 Bft)
28.01.2010 14:16 2,3 C 0,3 C 1,5 C 1,1 C -1,4 C 0,0 C 80 % 88 % 0 % 998,2 hPa 0,0 l/m 13,5 km/h (3 Bft) SW 225 0 min 0,0 UV-I -0,8 C -5,8 C 11,9 km/h (2 Bft)
28.01.2010 14:20 2,0 C 0,7 C 1,4 C 1,2 C -1,6 C 0,0 C 82 % 89 % 0 % 998,5 hPa 0,0 l/m 12,6 km/h (3 Bft) SW 225 0 min 0,0 UV-I -0,7 C -5,9 C 14,5 km/h (3 Bft)
28.01.2010 14:25 1,6 C 0,7 C 1,1 C 0,7 C -2,4 C 0,0 C 85 % 91 % 0 % 998,5 hPa 0,0 l/m 11,7 km/h (2 Bft) W-NW 292 0 min 0,0 UV-I -0,6 C -6,6 C 10,5 km/h (2 Bft)
28.01.2010 14:30 1,6 C 0,7 C 0,9 C 0,7 C -2,3 C 0,0 C 86 % 92 % 0 % 998,5 hPa 0,0 l/m 10,6 km/h (2 Bft) SW 225 0 min 0,0 UV-I -0,5 C -6,2 C 7,6 km/h (2 Bft)
28.01.2010 14:35 1,6 C 0,7 C 0,8 C 0,7 C -2,2 C 0,0 C 86 % 92 % 0 % 998,5 hPa 0,0 l/m 10,0 km/h (2 Bft) SW 225 0 min 0,0 UV-I -0,5 C -5,9 C 9,3 km/h (2 Bft)
28.01.2010 14:40 1,6 C 0,7 C 0,9 C 0,7 C -2,4 C 0,0 C 86 % 92 % 0 % 998,5 hPa 0,0 l/m 11,4 km/h (2 Bft) S 180 0 min 0,0 UV-I -0,5 C -6,6 C 16,9 km/h (3 Bft)
28.01.2010 14:45 1,9 C 0,6 C 1,1 C 0,5 C -2,4 C 0,0 C 85 % 92 % 0 % 998,5 hPa 0,0 l/m 12,6 km/h (3 Bft) W-SW 247 0 min 0,0 UV-I -0,3 C -6,9 C 20,0 km/h (4 Bft)
28.01.2010 14:50 2,0 C 0,5 C 1,2 C 1,0 C -2,2 C 0,0 C 84 % 91 % 0 % 998,5 hPa 0,0 l/m 13,5 km/h (3 Bft) W-SW 247 0 min 0,0 UV-I -0,4 C -6,8 C 17,5 km/h (3 Bft)
28.01.2010 14:55 2,0 C 0,5 C 1,2 C 1,1 C -2,1 C 0,0 C 83 % 90 % 0 % 998,5 hPa 0,0 l/m 14,6 km/h (3 Bft) SW 225 0 min 0,0 UV-I -0,6 C -6,9 C 21,9 km/h (4 Bft)
28.01.2010 15:00 2,0 C 0,6 C 1,2 C 1,1 C -2,2 C 0,0 C 84 % 90 % 0 % 997,6 hPa 0,0 l/m 15,4 km/h (3 Bft) SW 225 0 min 0,0 UV-I -0,4 C -7,2 C 15,0 km/h (3 Bft)
28.01.2010 15:10 1,7 C 0,8 C 0,9 C 0,7 C -2,6 C 0,0 C 86 % 92 % 0 % 997,6 hPa 0,0 l/m 13,4 km/h (3 Bft) S-SW 202 0 min 0,0 UV-I -0,4 C -7,3 C 11,9 km/h (2 Bft)
28.01.2010 15:15 1,5 C 0,7 C 0,8 C 0,5 C -3,1 C 0,0 C 87 % 93 % 0 % 997,6 hPa 0,0 l/m 14,0 km/h (3 Bft) S 180 0 min 0,0 UV-I -0,4 C -8,0 C 14,5 km/h (3 Bft)
28.01.2010 15:20 1,5 C 0,7 C 0,9 C 0,4 C -3,2 C 0,0 C 88 % 93 % 0 % 998,0 hPa 0,0 l/m 14,5 km/h (3 Bft) W-SW 247 0 min 0,0 UV-I -0,3 C -8,3 C 23,5 km/h (4 Bft)
28.01.2010 15:25 1,5 C 0,8 C 0,8 C 0,4 C -2,8 C 0,0 C 88 % 93 % 0 % 998,0 hPa 0,0 l/m 12,6 km/h (3 Bft) S 180 0 min 0,0 UV-I -0,3 C -7,3 C 10,3 km/h (2 Bft)
28.01.2010 15:30 1,5 C 0,8 C 0,8 C 0,5 C -2,7 C 0,0 C 88 % 93 % 0 % 998,0 hPa 0,0 l/m 12,1 km/h (2 Bft) S-SW 202 0 min 0,0 UV-I -0,3 C -7,1 C 15,9 km/h (3 Bft)
28.01.2010 15:35 1,3 C 0,8 C 0,7 C 0,4 C -2,8 C 0,0 C 88 % 93 % 0 % 998,0 hPa 0,0 l/m 12,6 km/h (3 Bft) SW 225 0 min 0,0 UV-I -0,5 C -7,3 C 15,0 km/h (3 Bft)
28.01.2010 15:40 1,3 C 0,8 C 0,6 C 0,3 C -3,1 C 0,0 C 88 % 93 % 0 % 997,5 hPa 0,0 l/m 13,7 km/h (3 Bft) S 180 0 min 0,0 UV-I -0,5 C -8,0 C 17,1 km/h (3 Bft)
28.01.2010 15:45 1,5 C 0,8 C 0,7 C 0,4 C -3,4 C 0,0 C 87 % 93 % 0 % 997,5 hPa 0,0 l/m 16,1 km/h (3 Bft) SW 225 0 min 0,0 UV-I -0,4 C -8,8 C 22,9 km/h (4 Bft)
28.01.2010 15:50 1,4 C 0,7 C 0,8 C 0,3 C -3,3 C 0,0 C 86 % 93 % 0 % 997,5 hPa 0,0 l/m 15,9 km/h (3 Bft) SW 225 0 min 0,0 UV-I -0,7 C -8,7 C 15,4 km/h (3 Bft)
28.01.2010 15:55 1,6 C 0,6 C 0,8 C 0,5 C -2,7 C 0,0 C 86 % 92 % 0 % 997,5 hPa 0,0 l/m 13,8 km/h (3 Bft) SW 225 0 min 0,0 UV-I -0,5 C -7,5 C 13,2 km/h (3 Bft)
28.01.2010 16:00 1,6 C 0,6 C 0,9 C 0,6 C -2,5 C 0,0 C 85 % 91 % 0 % 997,5 hPa 0,0 l/m 13,0 km/h (3 Bft) S-SW 202 0 min 0,0 UV-I -0,6 C -7,1 C 16,6 km/h (3 Bft)
28.01.2010 16:10 1,6 C 0,6 C 0,9 C 0,6 C -2,8 C 0,0 C 83 % 90 % 0 % 997,5 hPa 0,0 l/m 14,8 km/h (3 Bft) W-SW 247 0 min 0,0 UV-I -1,0 C -7,8 C 24,1 km/h (4 Bft)
28.01.2010 16:15 1,5 C 0,6 C 0,9 C 0,5 C -2,7 C 0,0 C 83 % 90 % 0 % 997,5 hPa 0,0 l/m 14,2 km/h (3 Bft) S-SW 202 0 min 0,0 UV-I -1,1 C -7,6 C 20,0 km/h (4 Bft)
28.01.2010 16:20 1,5 C 0,6 C 0,9 C 0,5 C -2,8 C 0,0 C 83 % 90 % 0 % 997,9 hPa 0,0 l/m 14,6 km/h (3 Bft) SW 225 0 min 0,0 UV-I -1,1 C -7,8 C 13,8 km/h (3 Bft)
28.01.2010 16:25 1,4 C 0,5 C 0,9 C 0,0 C -2,8 C 0,0 C 83 % 90 % 0 % 997,9 hPa 0,0 l/m 14,8 km/h (3 Bft) W-SW 247 0 min 0,0 UV-I -1,2 C -7,8 C 19,2 km/h (3 Bft)
28.01.2010 16:30 1,5 C 0,5 C 1,1 C 0,5 C -2,9 C 0,0 C 83 % 90 % 0 % 997,9 hPa 0,0 l/m 15,1 km/h (3 Bft) S-SW 202 0 min 0,0 UV-I -1,1 C -8,0 C 17,4 km/h (3 Bft)
28.01.2010 16:35 1,4 C 0,5 C 1,1 C 0,0 C -2,9 C 0,0 C 83 % 89 % 0 % 997,9 hPa 0,0 l/m 15,9 km/h (3 Bft) SW 225 0 min 0,0 UV-I -1,2 C -8,2 C 21,6 km/h (4 Bft)
28.01.2010 16:40 1,5 C 0,5 C 1,1 C 0,5 C -2,8 C 0,0 C 83 % 89 % 0 % 997,8 hPa 0,7 l/m 15,3 km/h (3 Bft) W-SW 247 0 min 0,0 UV-I -1,1 C -7,9 C 20,4 km/h (4 Bft)
28.01.2010 16:45 1,5 C 0,5 C 0,9 C 0,1 C -2,8 C 0,0 C 83 % 89 % 0 % 997,8 hPa 0,0 l/m 15,6 km/h (3 Bft) SW 225 0 min 0,0 UV-I -1,1 C -8,0 C 14,2 km/h (3 Bft)
28.01.2010 16:50 1,5 C 0,5 C 0,9 C 0,1 C -2,8 C 0,0 C 83 % 89 % 0 % 997,8 hPa 0,0 l/m 15,8 km/h (3 Bft) SW 225 0 min 0,0 UV-I -1,1 C -8,0 C 13,2 km/h (3 Bft)
28.01.2010 16:55 1,5 C 0,5 C 0,9 C 0,6 C -2,4 C 0,0 C 83 % 89 % 0 % 997,8 hPa 0,0 l/m 13,5 km/h (3 Bft) SW 225 0 min 0,0 UV-I -1,1 C -7,1 C 20,9 km/h (4 Bft)
28.01.2010 17:00 1,5 C 0,5 C 0,9 C 0,2 C -2,4 C 0,0 C 82 % 89 % 0 % 997,5 hPa 0,0 l/m 13,2 km/h (3 Bft) SW 225 0 min 0,0 UV-I -1,2 C -7,0 C 15,3 km/h (3 Bft)
28.01.2010 17:10 1,5 C 0,5 C 1,1 C 0,6 C -2,7 C 0,0 C 82 % 89 % 0 % 997,5 hPa 0,0 l/m 14,8 km/h (3 Bft) S 180 0 min 0,0 UV-I -1,2 C -7,7 C 17,1 km/h (3 Bft)
28.01.2010 17:15 1,4 C 0,5 C 0,9 C 0,5 C -2,5 C 0,0 C 82 % 89 % 0 % 997,5 hPa 0,0 l/m 13,0 km/h (3 Bft) W-SW 247 0 min 0,0 UV-I -1,3 C -7,1 C 13,4 km/h (3 Bft)
28.01.2010 17:20 1,5 C 0,5 C 1,1 C 0,6 C -2,6 C 0,0 C 82 % 89 % 0 % 997,9 hPa 0,0 l/m 13,7 km/h (3 Bft) SW 225 0 min 0,0 UV-I -1,2 C -7,3 C 20,1 km/h (4 Bft)
28.01.2010 17:25 1,5 C 0,5 C 1,1 C 0,1 C -2,6 C 0,0 C 82 % 89 % 0 % 997,9 hPa 0,0 l/m 14,3 km/h (3 Bft) SW 225 0 min 0,0 UV-I -1,2 C -7,5 C 24,9 km/h (4 Bft)
28.01.2010 17:30 1,5 C 0,5 C 1,1 C 0,1 C -2,6 C 0,0 C 82 % 89 % 0 % 997,9 hPa 0,0 l/m 13,7 km/h (3 Bft) W-SW 247 0 min 0,0 UV-I -1,2 C -7,3 C 15,9 km/h (3 Bft)
28.01.2010 17:35 1,5 C 0,5 C 1,0 C 0,6 C -2,3 C 0,0 C 82 % 88 % 0 % 997,9 hPa 0,0 l/m 12,9 km/h (3 Bft) SW 225 0 min 0,0 UV-I -1,2 C -6,8 C 16,1 km/h (3 Bft)
28.01.2010 17:40 1,5 C 0,5 C 1,1 C 0,6 C -2,6 C 0,0 C 82 % 88 % 0 % 997,9 hPa 0,0 l/m 14,3 km/h (3 Bft) SW 225 0 min 0,0 UV-I -1,2 C -7,5 C 14,3 km/h (3 Bft)
28.01.2010 17:45 1,5 C 0,5 C 1,1 C 0,1 C -2,6 C 0,0 C 82 % 89 % 0 % 997,9 hPa 0,0 l/m 14,0 km/h (3 Bft) SW 225 0 min 0,0 UV-I -1,2 C -7,4 C 12,4 km/h (3 Bft)
28.01.2010 17:50 1,3 C 0,5 C 1,1 C 0,4 C -2,7 C 0,0 C 82 % 88 % 0 % 997,9 hPa 0,0 l/m 14,0 km/h (3 Bft) SW 225 0 min 0,0 UV-I -1,4 C -7,5 C 22,2 km/h (4 Bft)
28.01.2010 17:55 1,3 C 0,5 C 1,1 C 0,4 C -2,8 C 0,0 C 82 % 88 % 0 % 997,9 hPa 0,0 l/m 14,8 km/h (3 Bft) SW 225 0 min 0,0 UV-I -1,4 C -7,8 C 16,9 km/h (3 Bft)
28.01.2010 18:00 1,3 C 0,5 C 1,1 C 0,4 C -3,0 C 0,0 C 82 % 88 % 0 % 997,2 hPa 0,0 l/m 16,7 km/h (3 Bft) W-SW 247 0 min 0,0 UV-I -1,4 C -8,5 C 21,6 km/h (4 Bft)
28.01.2010 18:10 1,3 C 0,5 C 1,1 C 0,4 C -2,5 C 0,0 C 81 % 88 % 0 % 997,2 hPa 0,0 l/m 14,6 km/h (3 Bft) S-SW 202 0 min 0,0 UV-I -1,6 C -7,4 C 15,3 km/h (3 Bft)
28.01.2010 18:15 1,3 C 0,5 C 1,1 C 0,5 C -2,2 C 0,0 C 81 % 88 % 0 % 997,2 hPa 0,0 l/m 13,2 km/h (3 Bft) W-SW 247 0 min 0,0 UV-I -1,6 C -6,7 C 14,6 km/h (3 Bft)
28.01.2010 18:20 1,3 C 0,5 C 1,1 C 0,1 C -2,2 C 0,0 C 81 % 88 % 0 % 998,1 hPa 0,0 l/m 12,7 km/h (3 Bft) S 180 0 min 0,0 UV-I -1,6 C -6,6 C 11,1 km/h (2 Bft)
28.01.2010 18:25 1,2 C 0,5 C 1,1 C 0,5 C -2,3 C 0,0 C 81 % 88 % 0 % 998,1 hPa 0,0 l/m 13,0 km/h (3 Bft) SW 225 0 min 0,0 UV-I -1,7 C -6,8 C 11,9 km/h (2 Bft)
28.01.2010 18:30 1,2 C 0,5 C 1,0 C 0,4 C -2,7 C 0,0 C 81 % 88 % 0 % 998,1 hPa 0,0 l/m 14,0 km/h (3 Bft) S-SO 157 0 min 0,0 UV-I -1,7 C -7,5 C 11,3 km/h (2 Bft)
28.01.2010 18:35 1,3 C 0,5 C 1,1 C 0,4 C -2,8 C 0,0 C 82 % 88 % 0 % 998,1 hPa 0,0 l/m 14,8 km/h (3 Bft) W-SW 247 0 min 0,0 UV-I -1,4 C -7,8 C 13,0 km/h (3 Bft)
28.01.2010 18:40 1,3 C 0,5 C 1,0 C -0,1 C -2,8 C 0,0 C 82 % 88 % 0 % 998,1 hPa 0,0 l/m 14,6 km/h (3 Bft) SW 225 0 min 0,0 UV-I -1,4 C -7,8 C 13,5 km/h (3 Bft)
28.01.2010 18:45 1,2 C 0,5 C 1,1 C 0,3 C -2,7 C 0,0 C 82 % 88 % 0 % 998,1 hPa 0,0 l/m 14,0 km/h (3 Bft) SW 225 0 min 0,0 UV-I -1,5 C -7,5 C 10,1 km/h (2 Bft)
28.01.2010 18:50 1,2 C 0,5 C 1,0 C -0,1 C -2,7 C 0,0 C 82 % 89 % 0 % 998,1 hPa 0,0 l/m 14,2 km/h (3 Bft) SW 225 0 min 0,0 UV-I -1,5 C -7,6 C 21,2 km/h (4 Bft)
28.01.2010 18:55 1,2 C 0,5 C 1,1 C 0,3 C -2,9 C 0,0 C 83 % 89 % 0 % 998,1 hPa 0,0 l/m 15,3 km/h (3 Bft) SW 225 0 min 0,0 UV-I -1,4 C -8,1 C 18,2 km/h (3 Bft)
28.01.2010 19:00 1,2 C 0,6 C 1,1 C 0,3 C -3,1 C 0,0 C 83 % 89 % 0 % 997,2 hPa 0,0 l/m 16,3 km/h (3 Bft) W 270 0 min 0,0 UV-I -1,4 C -8,5 C 14,5 km/h (3 Bft)
28.01.2010 19:10 1,1 C 0,5 C 1,1 C 0,2 C -2,8 C 0,0 C 83 % 89 % 0 % 997,2 hPa 0,0 l/m 14,6 km/h (3 Bft) SW 225 0 min 0,0 UV-I -1,5 C -7,8 C 23,3 km/h (4 Bft)
28.01.2010 19:15 1,1 C 0,6 C 0,9 C 0,2 C -3,2 C 0,0 C 83 % 89 % 0 % 997,2 hPa 0,0 l/m 16,6 km/h (3 Bft) SW 225 0 min 0,0 UV-I -1,5 C -8,7 C 38,9 km/h (6 Bft)
28.01.2010 19:20 1,1 C 0,6 C 0,9 C -0,3 C -3,2 C 0,0 C 83 % 89 % 0 % 997,0 hPa 0,0 l/m 15,8 km/h (3 Bft) SW 225 0 min 0,0 UV-I -1,5 C -8,5 C 14,3 km/h (3 Bft)
28.01.2010 19:25 1,1 C 0,6 C 0,8 C 0,1 C -3,1 C 0,0 C 83 % 89 % 0 % 997,0 hPa 0,0 l/m 14,6 km/h (3 Bft) W-SW 247 0 min 0,0 UV-I -1,5 C -8,2 C 30,1 km/h (5 Bft)
28.01.2010 19:30 1,1 C 0,6 C 0,9 C 0,2 C -3,0 C 0,0 C 83 % 89 % 0 % 997,0 hPa 0,0 l/m 13,8 km/h (3 Bft) SW 225 0 min 0,0 UV-I -1,5 C -7,9 C 17,4 km/h (3 Bft)
28.01.2010 19:35 0,9 C 0,6 C 0,9 C 0,0 C -2,9 C 0,0 C 83 % 89 % 0 % 997,0 hPa 0,0 l/m 13,0 km/h (3 Bft) SW 225 0 min 0,0 UV-I -1,7 C -7,6 C 11,6 km/h (2 Bft)
28.01.2010 19:40 0,9 C 0,6 C 0,9 C -0,4 C -2,9 C 0,0 C 83 % 89 % 0 % 997,1 hPa 0,0 l/m 12,7 km/h (3 Bft) SW 225 0 min 0,0 UV-I -1,7 C -7,5 C 13,0 km/h (3 Bft)
28.01.2010 19:45 0,8 C 0,5 C 0,8 C -0,1 C -3,5 C 0,0 C 83 % 88 % 0 % 997,1 hPa 0,0 l/m 15,1 km/h (3 Bft) SW 225 0 min 0,0 UV-I -1,8 C -8,8 C 26,4 km/h (4 Bft)
28.01.2010 19:50 0,8 C 0,6 C 0,8 C -0,2 C -3,6 C 0,0 C 83 % 88 % 0 % 997,1 hPa 0,0 l/m 15,9 km/h (3 Bft) W-SW 247 0 min 0,0 UV-I -1,8 C -9,0 C 15,3 km/h (3 Bft)
28.01.2010 19:55 0,8 C 0,6 C 0,8 C -0,2 C -3,7 C 0,0 C 83 % 88 % 0 % 997,1 hPa 0,0 l/m 16,3 km/h (3 Bft) S-SW 202 0 min 0,0 UV-I -1,8 C -9,2 C 23,3 km/h (4 Bft)
28.01.2010 20:00 0,8 C 0,6 C 0,7 C -0,7 C -3,7 C 0,0 C 83 % 88 % 0 % 997,0 hPa 0,0 l/m 16,1 km/h (3 Bft) S 180 0 min 0,0 UV-I -1,8 C -9,2 C 24,6 km/h (4 Bft)
28.01.2010 20:10 0,8 C 0,6 C 0,6 C -0,2 C -3,4 C 0,0 C 83 % 89 % 0 % 997,0 hPa 0,0 l/m 14,5 km/h (3 Bft) SW 225 0 min 0,0 UV-I -1,8 C -8,5 C 17,5 km/h (3 Bft)
28.01.2010 20:15 0,8 C 0,6 C 0,7 C -0,6 C -3,4 C 0,0 C 84 % 89 % 0 % 997,0 hPa 0,0 l/m 13,5 km/h (3 Bft) SW 225 0 min 0,0 UV-I -1,6 C -8,3 C 10,5 km/h (2 Bft)
28.01.2010 20:20 0,7 C 0,6 C 0,7 C -0,2 C -3,5 C 0,0 C 84 % 89 % 0 % 996,9 hPa 0,0 l/m 14,0 km/h (3 Bft) S-SW 202 0 min 0,0 UV-I -1,7 C -8,5 C 14,5 km/h (3 Bft)
28.01.2010 20:25 0,7 C 0,6 C 0,5 C -0,7 C -3,5 C 0,0 C 84 % 89 % 0 % 996,9 hPa 0,0 l/m 13,4 km/h (3 Bft) S-SW 202 0 min 0,0 UV-I -1,7 C -8,4 C 16,3 km/h (3 Bft)
28.01.2010 20:30 0,6 C 0,6 C 0,5 C -0,3 C -3,4 C 0,0 C 84 % 89 % 0 % 996,9 hPa 0,0 l/m 12,9 km/h (3 Bft) SW 225 0 min 0,0 UV-I -1,8 C -8,1 C 12,4 km/h (3 Bft)
28.01.2010 20:35 0,7 C 0,6 C 0,5 C -0,7 C -3,4 C 0,0 C 84 % 89 % 0 % 996,9 hPa 0,0 l/m 13,0 km/h (3 Bft) S 180 0 min 0,0 UV-I -1,7 C -8,2 C 9,7 km/h (2 Bft)
28.01.2010 20:40 0,7 C 0,6 C 0,4 C -0,7 C -3,4 C 0,0 C 84 % 89 % 0 % 997,1 hPa 0,0 l/m 13,0 km/h (3 Bft) SW 225 0 min 0,0 UV-I -1,7 C -8,2 C 10,8 km/h (2 Bft)
28.01.2010 20:45 0,7 C 0,6 C 0,5 C -0,2 C -3,3 C 0,0 C 84 % 89 % 0 % 997,1 hPa 0,0 l/m 12,6 km/h (3 Bft) S 180 0 min 0,0 UV-I -1,7 C -7,9 C 9,8 km/h (2 Bft)
28.01.2010 20:50 0,7 C 0,6 C 0,5 C -0,2 C -3,4 C 0,0 C 84 % 89 % 0 % 997,1 hPa 0,0 l/m 13,2 km/h (3 Bft) SW 225 0 min 0,0 UV-I -1,7 C -8,2 C 20,8 km/h (4 Bft)
28.01.2010 20:55 0,7 C 0,6 C 0,5 C -0,2 C -3,6 C 0,0 C 84 % 89 % 0 % 997,1 hPa 0,0 l/m 14,6 km/h (3 Bft) W-SW 247 0 min 0,0 UV-I -1,7 C -8,8 C 14,0 km/h (3 Bft)
28.01.2010 21:00 0,7 C 0,6 C 0,5 C -0,7 C -3,6 C 0,0 C 84 % 89 % 0 % 997,0 hPa 0,0 l/m 14,8 km/h (3 Bft) SW 225 0 min 0,0 UV-I -1,7 C -8,8 C 10,1 km/h (2 Bft)
28.01.2010 21:10 0,6 C 0,7 C 0,5 C -0,8 C -3,6 C 0,0 C 84 % 89 % 0 % 997,0 hPa 0,0 l/m 13,8 km/h (3 Bft) SW 225 0 min 0,0 UV-I -1,8 C -8,6 C 11,9 km/h (2 Bft)
28.01.2010 21:15 0,6 C 0,7 C 0,4 C -0,4 C -3,7 C 0,0 C 85 % 89 % 0 % 997,0 hPa 0,0 l/m 14,0 km/h (3 Bft) W-SW 247 0 min 0,0 UV-I -1,6 C -8,8 C 14,0 km/h (3 Bft)
28.01.2010 21:20 0,5 C 0,7 C 0,4 C -0,4 C -3,4 C 0,0 C 85 % 89 % 0 % 996,7 hPa 0,0 l/m 13,2 km/h (3 Bft) W-SW 247 0 min 0,0 UV-I -1,7 C -8,2 C 9,5 km/h (2 Bft)
28.01.2010 21:25 0,5 C 0,6 C 0,4 C -0,4 C -3,3 C 0,0 C 84 % 89 % 0 % 996,7 hPa 0,0 l/m 12,6 km/h (3 Bft) W-SW 247 0 min 0,0 UV-I -1,9 C -7,9 C 13,0 km/h (3 Bft)
28.01.2010 21:30 0,4 C 0,6 C 0,5 C -0,5 C -3,6 C 0,0 C 84 % 89 % 0 % 996,7 hPa 0,0 l/m 12,9 km/h (3 Bft) W-SW 247 0 min 0,0 UV-I -2,0 C -8,4 C 15,9 km/h (3 Bft)
28.01.2010 21:35 0,5 C 0,7 C 0,3 C -0,9 C -3,6 C 0,0 C 84 % 89 % 0 % 996,7 hPa 0,0 l/m 12,6 km/h (3 Bft) SW 225 0 min 0,0 UV-I -1,9 C -8,3 C 10,5 km/h (2 Bft)
28.01.2010 21:40 0,5 C 0,7 C 0,3 C -0,4 C -3,5 C 0,0 C 84 % 89 % 0 % 996,9 hPa 0,0 l/m 12,1 km/h (2 Bft) S 180 0 min 0,0 UV-I -1,9 C -8,1 C 13,5 km/h (3 Bft)
28.01.2010 21:45 0,4 C 0,7 C 0,3 C -0,5 C -3,4 C 0,0 C 85 % 89 % 0 % 996,9 hPa 0,0 l/m 11,7 km/h (2 Bft) SW 225 0 min 0,0 UV-I -1,8 C -7,8 C 16,3 km/h (3 Bft)
28.01.2010 21:50 0,4 C 0,7 C 0,3 C -0,9 C -3,4 C 0,0 C 85 % 89 % 0 % 996,9 hPa 0,0 l/m 11,9 km/h (2 Bft) W-SW 247 0 min 0,0 UV-I -1,8 C -7,9 C 22,0 km/h (4 Bft)
28.01.2010 21:55 0,4 C 0,7 C 0,3 C -0,5 C -3,5 C 0,0 C 85 % 90 % 0 % 996,9 hPa 0,0 l/m 12,1 km/h (2 Bft) S 180 0 min 0,0 UV-I -1,8 C -8,1 C 17,9 km/h (3 Bft)
28.01.2010 22:00 0,4 C 0,7 C 0,3 C -0,5 C -3,7 C 0,0 C 85 % 90 % 0 % 996,8 hPa 0,0 l/m 13,0 km/h (3 Bft) S 180 0 min 0,0 UV-I -1,8 C -8,5 C 9,5 km/h (2 Bft)
28.01.2010 22:10 0,4 C 0,7 C 0,3 C -0,5 C -3,2 C 0,0 C 86 % 90 % 0 % 996,8 hPa 0,0 l/m 11,3 km/h (2 Bft) SW 225 0 min 0,0 UV-I -1,7 C -7,5 C 17,7 km/h (3 Bft)
28.01.2010 22:15 0,4 C 0,9 C 0,3 C -0,4 C -3,3 C 0,0 C 86 % 90 % 0 % 996,8 hPa 0,0 l/m 11,7 km/h (2 Bft) SW 225 0 min 0,0 UV-I -1,7 C -7,7 C 18,2 km/h (3 Bft)
28.01.2010 22:20 0,4 C 0,9 C 0,3 C -0,8 C -3,3 C 0,0 C 86 % 90 % 0 % 996,8 hPa 0,0 l/m 11,9 km/h (2 Bft) SW 225 0 min 0,0 UV-I -1,7 C -7,8 C 12,2 km/h (2 Bft)
28.01.2010 22:25 0,4 C 0,9 C 0,2 C -0,4 C -3,4 C 0,0 C 86 % 90 % 0 % 996,8 hPa 0,0 l/m 12,6 km/h (3 Bft) SW 225 0 min 0,0 UV-I -1,7 C -8,1 C 17,2 km/h (3 Bft)
28.01.2010 22:30 0,4 C 0,9 C 0,3 C -0,5 C -3,6 C 0,0 C 86 % 90 % 0 % 996,8 hPa 0,0 l/m 12,9 km/h (3 Bft) SW 225 0 min 0,0 UV-I -1,7 C -8,4 C 15,6 km/h (3 Bft)
28.01.2010 22:35 0,4 C 0,7 C 0,3 C -0,5 C -3,3 C 0,0 C 86 % 90 % 0 % 996,8 hPa 0,0 l/m 12,1 km/h (2 Bft) SW 225 0 min 0,0 UV-I -1,7 C -7,8 C 15,0 km/h (3 Bft)
28.01.2010 22:40 0,3 C 0,7 C 0,3 C -0,9 C -3,3 C 0,0 C 86 % 90 % 0 % 996,4 hPa 0,0 l/m 12,1 km/h (2 Bft) W-SW 247 0 min 0,0 UV-I -1,8 C -7,8 C 12,1 km/h (2 Bft)
28.01.2010 22:45 0,4 C 0,7 C 0,3 C -0,4 C -3,4 C 0,0 C 85 % 89 % 0 % 996,4 hPa 0,0 l/m 12,2 km/h (2 Bft) W-SW 247 0 min 0,0 UV-I -1,8 C -8,0 C 20,0 km/h (4 Bft)
28.01.2010 22:50 0,4 C 0,7 C 0,2 C -0,4 C -3,3 C 0,0 C 85 % 89 % 0 % 996,4 hPa 0,0 l/m 11,7 km/h (2 Bft) SW 225 0 min 0,0 UV-I -1,8 C -7,7 C 9,0 km/h (2 Bft)
28.01.2010 22:55 0,4 C 0,7 C 0,3 C -0,4 C -3,5 C 0,0 C 85 % 89 % 0 % 996,4 hPa 0,0 l/m 12,7 km/h (3 Bft) W 270 0 min 0,0 UV-I -1,8 C -8,2 C 16,1 km/h (3 Bft)
28.01.2010 23:00 0,4 C 0,7 C 0,3 C -0,4 C -3,1 C 0,0 C 85 % 89 % 0 % 996,4 hPa 0,0 l/m 11,6 km/h (2 Bft) SW 225 0 min 0,0 UV-I -1,8 C -7,5 C 9,3 km/h (2 Bft)
28.01.2010 23:10 0,5 C 0,7 C 0,4 C -0,3 C -3,3 C 0,0 C 85 % 89 % 0 % 996,4 hPa 0,0 l/m 12,2 km/h (2 Bft) W-SW 247 0 min 0,0 UV-I -1,7 C -7,8 C 10,0 km/h (2 Bft)
28.01.2010 23:15 0,5 C 0,7 C 0,4 C -0,8 C -3,3 C 0,0 C 85 % 89 % 0 % 996,4 hPa 0,0 l/m 12,7 km/h (3 Bft) S 180 0 min 0,0 UV-I -1,7 C -8,0 C 20,6 km/h (4 Bft)
28.01.2010 23:20 0,4 C 0,7 C 0,4 C -0,8 C -3,3 C 0,0 C 85 % 88 % 0 % 996,6 hPa 0,0 l/m 12,7 km/h (3 Bft) SW 225 0 min 0,0 UV-I -1,8 C -8,0 C 13,4 km/h (3 Bft)
28.01.2010 23:25 0,4 C 0,7 C 0,4 C -0,4 C -3,4 C 0,0 C 85 % 88 % 0 % 996,6 hPa 0,0 l/m 13,0 km/h (3 Bft) SW 225 0 min 0,0 UV-I -1,8 C -8,2 C 21,1 km/h (4 Bft)
28.01.2010 23:30 0,4 C 0,7 C 0,4 C -0,4 C -3,3 C 0,0 C 85 % 88 % 0 % 996,6 hPa 0,0 l/m 12,7 km/h (3 Bft) W-SW 247 0 min 0,0 UV-I -1,8 C -8,0 C 19,3 km/h (3 Bft)
28.01.2010 23:35 0,4 C 0,7 C 0,4 C -0,4 C -3,6 C 0,0 C 85 % 88 % 0 % 996,6 hPa 0,0 l/m 13,8 km/h (3 Bft) W-SW 247 0 min 0,0 UV-I -1,8 C -8,6 C 17,5 km/h (3 Bft)
28.01.2010 23:40 0,4 C 0,7 C 0,4 C -0,9 C -3,6 C 0,0 C 84 % 88 % 0 % 996,5 hPa 0,0 l/m 13,5 km/h (3 Bft) W-SW 247 0 min 0,0 UV-I -2,0 C -8,5 C 14,5 km/h (3 Bft)
28.01.2010 23:45 0,4 C 0,7 C 0,4 C -0,4 C -3,2 C 0,0 C 84 % 88 % 0 % 996,5 hPa 0,0 l/m 11,9 km/h (2 Bft) SW 225 0 min 0,0 UV-I -2,0 C -7,7 C 16,4 km/h (3 Bft)
28.01.2010 23:50 0,4 C 0,6 C 0,4 C -0,4 C -3,3 C 0,0 C 84 % 88 % 0 % 996,5 hPa 0,0 l/m 12,6 km/h (3 Bft) SW 225 0 min 0,0 UV-I -2,0 C -7,9 C 14,6 km/h (3 Bft)
28.01.2010 23:55 0,4 C 0,7 C 0,4 C -0,8 C -3,3 C 0,0 C 84 % 87 % 0 % 996,5 hPa 0,0 l/m 12,6 km/h (3 Bft) W-SW 247 0 min 0,0 UV-I -2,0 C -7,9 C 13,8 km/h (3 Bft)
_ Min-Zeit 00:00 00:00 00:00 00:40 00:45 00:00 13:50 13:10 00:00 22:40 - 06:52 - - - 00:00 00:00 00:45 06:10
Minimum _ -5,2 C 0,1 C -4,9 C -6,7 C -10,4 C 0,0 C 78 % 85 % 0 % 996,4 hPa - 8,2 km/h (2 Bft) - - - 0,0 UV-I -6,3 C -17,3 C 6,3 km/h (2 Bft)
_ Max-Zeit 13:10 22:15 13:10 13:10 13:10 00:00 05:40 15:15 00:00 00:00 16:40 02:20 - - 00:00 12:55 12:30 10:52 19:15
Maximum _ 2,8 C 0,9 C 2,0 C 2,2 C -0,1 C 0,0 C 94 % 93 % 0 % 1020,0 hPa 0,7 l/m 16,9 km/h
NO (3 Bft)
- - 0 min 0,1 UV-I -0,2 C -3,5 C 38,9 km/h
SW (6 Bft)
Durchschnitt _ -0,4 C 0,4 C -0,5 C -1,4 C -4,4 C 0,0 C 87 % 89 % 0 % 1007,0 hPa #0,7 l/m 13,5 km/h (3 Bft) SW - #0 min. 0,1 UV-I -2,3 C -9,5 C 16,7 km/h (3 Bft)
2013 www.wetterstation-wechselburg.de